McHenry, MD

6:41 PM EDT on July 25, 2016 (GMT -0400)
Oakland

Weather History for K2G4 - July, 2013

Change the Weather History Date:

Wednesday, July 3, 2013

  Actual Average (KMGW) Record (KMGW)
Temperature  
Mean Temperature 70 °F 73 °F  
Max Temperature 78 °F 83 °F 98 °F (1966)
Min Temperature 62 °F 62 °F 49 °F (2001)
Degree Days  
Heating Degree Days 0 0  
Month to date heating degree days 0  
Since 1 June heating degree days 31  
Since 1 July heating degree days 0  
Cooling Degree Days 5 8  
Month to date cooling degree days 24  
Year to date cooling degree days 253  
Since 1 June cooling degree days 186  
Growing Degree Days 20 (Base 50)    
Moisture  
Dew Point 66 °F    
Average Humidity 94    
Maximum Humidity 100    
Minimum Humidity 69    
Precipitation  
Precipitation 0.00 in 0.14 in 1.85 in (1982)
Month to date precipitation 0.44  
Year to date precipitation 21.74  
Sea Level Pressure  
Sea Level Pressure 30.26 in    
Wind  
Wind Speed 7 mph (SSE)    
Max Wind Speed 12 mph    
Max Gust Speed -    
Visibility 10 miles    
Events      
T = Trace of Precipitation, MM = Missing Value Source: NWS Daily Summary

Daily Weather History Graph

Daily Weather History Graph

Search for Another Location

Airport or City:

Trip Planner

Search our weather history database for the weather conditions in past years. The results will help you decide how hot, cold, wet, or windy it might be!

Date:

Astronomy

Jul. 03, 2013 Rise Set
Actual Time 5:54 AM EDT 8:48 PM EDT
Civil Twilight 5:22 AM EDT 9:20 PM EDT
Nautical Twilight 4:41 AM EDT 10:01 PM EDT
Astronomical Twilight 3:54 AM EDT 10:48 PM EDT
Moon 2:31 AM EDT (7/3) 4:57 PM EDT (7/3)
Length of Visible Light 15h 58m
Length of Day
14h 53m
Waning Crescent, 18% of the Moon is Illuminated
Jul 3
Waning Crescent
Jul 8
New
Jul 15
First Quarter
Jul 22
Full
Jul 29
Last Quarter

Hourly Weather History & Observations

Time (EDT) Temp. Dew Point Humidity Pressure Visibility Wind Dir Wind Speed Gust Speed Precip Events Conditions
12:10 AM 64.4 °F 64.4 °F 100% 30.20 in 10.0 mi SE 8.1 mph - N/A   Mostly Cloudy
12:30 AM 64.4 °F 64.4 °F 100% 30.20 in 10.0 mi SE 6.9 mph - N/A   Mostly Cloudy
12:50 AM 64.4 °F 64.4 °F 100% 30.20 in 10.0 mi SSE 5.8 mph - N/A   Mostly Cloudy
1:10 AM 64.4 °F 64.4 °F 100% 30.20 in 10.0 mi SSE 8.1 mph - N/A   Mostly Cloudy
1:30 AM 64.4 °F 64.4 °F 100% 30.20 in 10.0 mi SSE 8.1 mph - N/A   Scattered Clouds
1:50 AM 64.4 °F 64.4 °F 100% 30.20 in 10.0 mi SSE 8.1 mph - N/A   Mostly Cloudy
2:10 AM 64.4 °F 64.4 °F 100% 30.20 in 10.0 mi SSE 8.1 mph - N/A   Overcast
2:30 AM 64.4 °F 64.4 °F 100% 30.20 in 10.0 mi SSE 6.9 mph - N/A   Mostly Cloudy
2:50 AM 62.6 °F 62.6 °F 100% 30.20 in 10.0 mi SSE 6.9 mph - N/A   Scattered Clouds
3:10 AM 62.6 °F 62.6 °F 100% 30.20 in 10.0 mi South 5.8 mph - N/A   Scattered Clouds
3:30 AM 62.6 °F 62.6 °F 100% 30.20 in 10.0 mi SSE 6.9 mph - N/A   Clear
3:50 AM 62.6 °F 62.6 °F 100% 30.21 in 10.0 mi South 5.8 mph - N/A   Clear
4:10 AM 62.6 °F 62.6 °F 100% 30.21 in 10.0 mi SSE 6.9 mph - N/A   Clear
4:30 AM 62.6 °F 62.6 °F 100% 30.22 in 10.0 mi South 6.9 mph - N/A   Scattered Clouds
4:50 AM 62.6 °F 62.6 °F 100% 30.23 in 10.0 mi South 8.1 mph - N/A   Mostly Cloudy
5:10 AM 62.6 °F 62.6 °F 100% 30.22 in 10.0 mi South 6.9 mph - N/A   Overcast
5:30 AM 62.6 °F 62.6 °F 100% 30.23 in 10.0 mi SSE 6.9 mph - N/A   Mostly Cloudy
5:50 AM 62.6 °F 62.6 °F 100% 30.24 in 10.0 mi South 6.9 mph - N/A   Clear
6:10 AM 62.6 °F 62.6 °F 100% 30.25 in 10.0 mi South 6.9 mph - N/A   Clear
6:30 AM 62.6 °F 62.6 °F 100% 30.25 in 10.0 mi SSE 6.9 mph - N/A   Mostly Cloudy
6:50 AM 62.6 °F 62.6 °F 100% 30.26 in 10.0 mi South 6.9 mph - N/A   Scattered Clouds
7:10 AM 62.6 °F 62.6 °F 100% 30.26 in 10.0 mi SSE 5.8 mph - N/A   Clear
7:30 AM 62.6 °F 62.6 °F 100% 30.27 in 10.0 mi South 4.6 mph - N/A   Clear
7:50 AM 64.4 °F 64.4 °F 100% 30.27 in 10.0 mi SSE 6.9 mph - N/A   Clear
8:10 AM 64.4 °F 64.4 °F 100% 30.27 in 10.0 mi South 5.8 mph - N/A   Clear
8:30 AM 64.4 °F 64.4 °F 100% 30.28 in 10.0 mi SSE 5.8 mph - N/A   Clear
8:50 AM 68.0 °F 68.0 °F 100% 30.29 in 10.0 mi SSE 5.8 mph - N/A   Clear
9:10 AM 68.0 °F 68.0 °F 100% 30.28 in 10.0 mi South 3.5 mph - N/A   Clear
9:30 AM 69.8 °F 68.0 °F 94% 30.29 in 10.0 mi SSE 4.6 mph - N/A   Clear
9:50 AM 69.8 °F 68.0 °F 94% 30.29 in 10.0 mi South 3.5 mph - N/A   Clear
10:10 AM 69.8 °F 66.2 °F 88% 30.30 in 10.0 mi South 3.5 mph - N/A   Clear
10:30 AM 71.6 °F 68.0 °F 88% 30.30 in 10.0 mi SSE 5.8 mph - N/A   Clear
10:50 AM 71.6 °F 68.0 °F 88% 30.30 in 10.0 mi South 5.8 mph - N/A   Clear
11:10 AM 73.4 °F 66.2 °F 78% 30.31 in 10.0 mi South 5.8 mph - N/A   Clear
11:30 AM 73.4 °F 68.0 °F 83% 30.31 in 10.0 mi South 3.5 mph - N/A   Scattered Clouds
11:50 AM 73.4 °F 66.2 °F 78% 30.31 in 10.0 mi South 4.6 mph - N/A   Scattered Clouds
12:10 PM 77.0 °F 68.0 °F 74% 30.31 in 10.0 mi SSE 3.5 mph - N/A   Scattered Clouds
12:30 PM 73.4 °F 64.4 °F 73% 30.30 in 10.0 mi Calm Calm - N/A   Mostly Cloudy
12:50 PM 77.0 °F 66.2 °F 69% 30.29 in 10.0 mi SSE 6.9 mph - N/A   Mostly Cloudy
1:10 PM 77.0 °F 66.2 °F 69% 30.29 in 10.0 mi SSE 5.8 mph - N/A   Scattered Clouds
1:30 PM 77.0 °F 68.0 °F 74% 30.29 in 10.0 mi ESE 4.6 mph - N/A   Scattered Clouds
1:50 PM 77.0 °F 68.0 °F 74% 30.29 in 10.0 mi ESE 3.5 mph - N/A   Scattered Clouds
2:10 PM 77.0 °F 69.8 °F 78% 30.28 in 10.0 mi ESE 8.1 mph - N/A   Mostly Cloudy
2:30 PM 77.0 °F 69.8 °F 78% 30.27 in 10.0 mi ESE 9.2 mph - N/A   Mostly Cloudy
2:50 PM 78.8 °F 68.0 °F 69% 30.27 in 10.0 mi SSE 3.5 mph - N/A   Scattered Clouds
3:10 PM 77.0 °F 68.0 °F 74% 30.27 in 10.0 mi SSE 9.2 mph - N/A   Scattered Clouds
3:30 PM 75.2 °F 69.8 °F 83% 30.27 in 10.0 mi ESE 11.5 mph - N/A   Mostly Cloudy
3:50 PM 71.6 °F 69.8 °F 94% 30.27 in 10.0 mi SE 8.1 mph - N/A   Overcast
4:10 PM 68.0 °F 68.0 °F 100% 30.27 in 3.0 mi SSE 10.4 mph - N/A   Overcast
4:30 PM 68.0 °F 68.0 °F 100% 30.27 in 5.0 mi ESE 8.1 mph - N/A   Overcast
4:50 PM 69.8 °F 69.8 °F 100% 30.28 in 10.0 mi ESE 8.1 mph - N/A   Mostly Cloudy
5:10 PM 71.6 °F 71.6 °F 100% 30.28 in 10.0 mi ESE 8.1 mph - N/A   Mostly Cloudy
5:30 PM 71.6 °F 71.6 °F 100% 30.27 in 10.0 mi ESE 5.8 mph - N/A   Mostly Cloudy
5:50 PM 69.8 °F 69.8 °F 100% 30.26 in 10.0 mi ESE 6.9 mph - N/A   Mostly Cloudy
6:10 PM 69.8 °F 69.8 °F 100% 30.26 in 10.0 mi SE 5.8 mph - N/A   Mostly Cloudy
6:30 PM 69.8 °F 69.8 °F 100% 30.26 in 10.0 mi SSE 9.2 mph - N/A   Scattered Clouds
6:50 PM 69.8 °F 69.8 °F 100% 30.27 in 10.0 mi SSE 10.4 mph - N/A   Clear
7:10 PM 69.8 °F 69.8 °F 100% 30.27 in 10.0 mi SSE 6.9 mph - N/A   Scattered Clouds
7:30 PM 69.8 °F 69.8 °F 100% 30.28 in 10.0 mi SSE 8.1 mph - N/A   Mostly Cloudy
7:50 PM 69.8 °F 69.8 °F 100% 30.28 in 10.0 mi SSE 5.8 mph - N/A   Overcast
8:10 PM 69.8 °F 68.0 °F 94% 30.28 in 10.0 mi SSE 5.8 mph - N/A   Overcast
8:30 PM 68.0 °F 68.0 °F 100% 30.27 in 10.0 mi SE 6.9 mph - N/A   Scattered Clouds
8:50 PM 68.0 °F 68.0 °F 100% 30.27 in 10.0 mi SE 8.1 mph - N/A   Clear
9:10 PM 68.0 °F 68.0 °F 100% 30.27 in 10.0 mi SSE 8.1 mph - N/A   Clear
9:30 PM 66.2 °F 66.2 °F 100% 30.29 in 10.0 mi SSE 8.1 mph - N/A   Clear
9:50 PM 66.2 °F 66.2 °F 100% 30.29 in 10.0 mi SSE 9.2 mph - N/A   Clear
10:10 PM 66.2 °F 66.2 °F 100% 30.30 in 10.0 mi SSE 9.2 mph - N/A   Clear
10:30 PM 66.2 °F 66.2 °F 100% 30.31 in 10.0 mi South 9.2 mph - N/A   Scattered Clouds
10:50 PM 66.2 °F 66.2 °F 100% 30.30 in 10.0 mi South 8.1 mph - N/A   Scattered Clouds
11:10 PM 66.2 °F 64.4 °F 94% 30.31 in 10.0 mi South 5.8 mph - N/A   Clear
11:30 PM 66.2 °F 64.4 °F 94% 30.31 in 10.0 mi South 6.9 mph - N/A   Scattered Clouds
11:50 PM 66.2 °F 64.4 °F 94% 30.31 in 10.0 mi South 8.1 mph - N/A   Mostly Cloudy